CW0498 Weather Reports


Display with metric or nautical units.
time (UTC)temp
F
wind
direction
speed
MPH
gust
MPH
rain 1hr
in
rain 24hr
in
rain mn
in
humidity
%
barometer
mb
20260503024549 50 0 0.0 0.0 0.00 0.00 0.00 71 1017.2
20260503023044 51 0 0.0 0.0 0.00 0.00 0.00 69 1017.0
20260503021539 52 0 0.0 0.0 0.00 0.00 0.00 67 1016.7
20260503020038 53 0 0.0 0.0 0.00 0.00 0.00 65 1016.5
20260503014541 54 0 0.0 0.0 0.00 0.00 0.00 64 1016.4
20260503013037 55 0 0.0 0.0 0.00 0.00 0.00 60 1016.2
20260503011547 56 0 0.0 0.0 0.00 0.00 0.00 57 1016.1
20260503010043 58 0 0.0 0.0 0.00 0.00 0.00 53 1015.9
20260503004604 59 0 0.0 0.0 0.00 0.00 0.00 49 1015.8
20260503003052 60 0 0.0 3.0 0.00 0.00 0.00 46 1015.4
20260503001556 61 272 0.0 3.0 0.00 0.00 0.00 45 1015.3
20260503000046 62 63 0.0 8.0 0.00 0.00 0.00 44 1014.9
20260502234549 62 10 0.0 4.0 0.00 0.00 0.00 45 1014.6
20260502233043 63 302 1.0 4.0 0.00 0.00 0.00 44 1014.4
20260502231540 63 300 1.0 9.0 0.00 0.00 0.00 43 1014.2
20260502230039 64 0 0.0 6.0 0.00 0.00 0.00 44 1014.3
20260502224537 65 300 0.0 12.0 0.00 0.00 0.00 44 1014.3
20260502223046 64 331 2.0 7.0 0.00 0.00 0.00 43 1014.3
20260502221546 64 250 1.0 8.0 0.00 0.00 0.00 42 1014.3
20260502220046 63 346 1.0 9.0 0.00 0.00 0.00 41 1014.2
20260502214548 64 257 2.0 11.0 0.00 0.00 0.00 40 1014.2
20260502213047 64 275 2.0 12.0 0.00 0.00 0.00 38 1013.8
20260502211544 65 72 3.0 9.0 0.00 0.00 0.00 38 1013.8
20260502210046 66 315 1.0 13.0 0.00 0.00 0.00 39 1013.7
20260502204545 67 320 2.0 8.0 0.00 0.00 0.00 39 1013.4
20260502203045 67 306 2.0 6.0 0.00 0.00 0.00 37 1013.4
20260502201541 67 79 1.0 7.0 0.00 0.00 0.00 40 1013.5
20260502200047 68 335 1.0 7.0 0.00 0.00 0.00 42 1013.6
20260502194543 68 46 1.0 8.0 0.00 0.00 0.00 44 1013.6
20260502193045 68 330 0.0 6.0 0.00 0.00 0.00 44 1013.6
20260502191546 67 317 1.0 10.0 0.00 0.00 0.00 44 1013.8
20260502190047 67 210 2.0 7.0 0.00 0.00 0.00 46 1013.7
20260502184556 67 321 2.0 10.0 0.00 0.00 0.00 44 1013.6
20260502183040 66 24 1.0 6.0 0.00 0.00 0.00 48 1013.3
20260502181551 66 76 2.0 8.0 0.00 0.00 0.00 49 1013.5
20260502163056 63 74 1.0 8.0 0.00 0.00 0.00 63 1013.9
20260502161544 62 352 0.0 8.0 0.00 0.00 0.00 65 1014.0
20260502151543 58 0 1.0 6.0 0.00 0.00 0.00 69 1014.0
20260502123057 52 0 0.0 2.0 0.00 0.00 0.00 72 1013.1
20260502121544 52 305 1.0 2.0 0.00 0.00 0.00 72 1013.2
20260502114547 52 317 0.0 1.0 0.00 0.00 0.00 72 1013.2
20260502113051 52 0 0.0 2.0 0.00 0.00 0.00 72 1012.5
20260502111547 53 0 0.0 2.0 0.00 0.00 0.00 72 1012.9
20260502110056 53 0 0.0 1.0 0.00 0.00 0.00 72 1013.4
20260502104551 54 0 0.0 0.0 0.00 0.00 0.00 70 1013.1
20260502103052 54 0 0.0 3.0 0.00 0.00 0.00 69 1012.9
20260502101603 54 295 1.0 5.0 0.00 0.00 0.00 68 1012.7
20260502070049 55 316 0.0 3.0 0.00 0.00 0.00 87 1013.0
20260502064550 55 0 0.0 1.0 0.00 0.00 0.00 89 1013.1
20260502063045 55 0 0.0 0.0 0.00 0.00 0.00 89 1013.5
20260502061537 55 0 0.0 0.0 0.00 0.00 0.00 89 1013.4
20260502060054 56 0 0.0 0.0 0.00 0.00 0.00 86 1013.4
20260502054544 56 0 0.0 0.0 0.00 0.00 0.00 85 1013.6
20260502053049 57 0 0.0 1.0 0.00 0.00 0.00 83 1013.5
20260502051547 58 0 0.0 2.0 0.00 0.00 0.00 80 1013.2
20260502050048 58 0 0.0 1.0 0.00 0.00 0.00 78 1013.2
20260502044537 59 0 0.0 1.0 0.00 0.00 0.00 77 1013.2
20260502043044 59 0 0.0 3.0 0.00 0.00 0.00 76 1013.4
20260502041544 58 0 0.0 1.0 0.00 0.00 0.00 78 1013.4
20260502040045 58 0 0.0 0.0 0.00 0.00 0.00 81 1013.7
20260502034537 58 0 0.0 0.0 0.00 0.00 0.00 83 1013.8
20260502033053 58 15 0.0 1.0 0.00 0.00 0.00 83 1014.0
20260502031539 58 0 0.0 0.0 0.00 0.00 0.00 83 1014.2
20260502030055 59 0 0.0 0.0 0.00 0.00 0.00 83 1014.2